Regional Weather Roundup
Issued by NWS

Home | Current Version | Previous Version | Text Only | Print | Product List | Glossary Off
Versions: 1 2 3 4 5 6 7 8 9 10 11 12 13 14 15 16 17 18 19 20 21 22 23 24 25 26 27 28 29 30 31 32 33 34 35 36 37 38 39 40 41 42 43 44 45 46 47 48 49 50

000
ASUS43 KLSX 031907
RWRMO

WEATHER SUMMARY FOR MISSOURI
NATIONAL WEATHER SERVICE SPRINGFIELD MO
200 PM CDT THU SEP 03 2015

NOTE: "FAIR" INDICATES FEW OR NO CLOUDS BELOW 12,000 FEET WITH NO
       SIGNIFICANT WEATHER AND/OR OBSTRUCTIONS TO VISIBILITY.
       CURRENT SKY AND/OR WEATHER CONDITIONS ARE NOT AVAILABLE FOR
       CHILLICOTHE AND FARMINGTON.

MOZ001>031-035>038-043-044-053-054-032000-
...NORTHERN AND WESTERN MISSOURI...

CITY           SKY/WX    TMP DP  RH WIND       PRES   REMARKS
KANSAS CTY INT PTSUNNY   91  68  46 S16G22    29.92F HX  95
KANSAS C DTWN  SUNNY     91  68  46 SW12      29.91F HX  95
LEE`S SUMMIT   MOSUNNY   89  67  47 S13G20    29.94F HX  92
ST JOSEPH      SUNNY     90  71  53 S13       29.89F HX  96
CHILLICOTHE      N/A     92  69  47 S10G17    29.92F HX  97
KIRKSVILLE     SUNNY     91  67  44 S10       29.95F HX  94

$$
MOZ066>068-077>081-088>096-101>105-032000-
...SOUTHWEST MISSOURI...

CITY           SKY/WX    TMP DP  RH WIND       PRES   REMARKS
SPRINGFIELD    MOSUNNY   88  66  48 S10       30.00F HX  90
JOPLIN         MOSUNNY   88  69  53 SW9       29.98F HX  92

$$
MOZ032>034-039>042-045>050-055>058-069>072-032000-
...CENTRAL MISSOURI...

CITY           SKY/WX    TMP DP  RH WIND       PRES   REMARKS
COLUMBIA       SUNNY     89  69  51 SW9       29.97F HX  93
JEFFERSON CITY MOSUNNY   90  66  45 MISG      29.95F HX  92
ROLLA          PTSUNNY   89  64  43 SW10      29.98F HX  90
SEDALIA        MOSUNNY   93  67  42 S10       29.98F HX  96
WHITEMAN AFB   SUNNY     92  67  44 SW15      29.94F HX  95
WARRENSBURG    SUNNY     90  64  43 S10G17    29.94F HX  91
OSAGE BEACH    MOSUNNY   91  64  40 SW7       29.99F HX  93

$$
MOZ051-052-059>065-032000-
...EAST CENTRAL MISSOURI...

CITY           SKY/WX    TMP DP  RH WIND       PRES   REMARKS
ST LOUIS INTL  MOSUNNY   92  66  42 W12       29.97F HX  94
SPIRIT OF STL  MOSUNNY   90  71  53 SW7       29.95F HX  96
ST CHARLES     SUNNY     91  68  46 W5        29.95F HX  95

$$
MOZ072>076-082>087-097>100-106>115-032000-
...SOUTH CENTRAL AND SOUTHEAST MISSOURI...

CITY           SKY/WX    TMP DP  RH WIND       PRES   REMARKS
CAPE GIRARDEAU SUNNY     91  67  44 W5        29.97F HX  94
FARMINGTON     SUNNY     88  68  51 CALM      30.02F HX  91
POPLAR BLUFF   SUNNY     89  69  51 SW7       29.97F HX  93
WEST PLAINS    MOSUNNY   89  65  44 VRB6      30.03F HX  91

$$


USA.gov is the U.S. government's official web portal to all federal, state and local government web resources and services.